King Salmon, AK

7:38 PM AKDT on August 31, 2016 (GMT -0800)
Port Heiden

Weather History for PAPH - September, 2012

Change the Weather History Date:

Thursday, September 27, 2012

  Actual Average Record
Temperature  
Mean Temperature 44 °F -  
Max Temperature 50 °F 48 °F 57 °F (2005)
Min Temperature 37 °F 38 °F 8 °F (2007)
Degree Days  
Heating Degree Days 22    
Moisture  
Dew Point 35 °F    
Average Humidity 72    
Maximum Humidity 81    
Minimum Humidity 55    
Precipitation  
Precipitation 0.00 in - - ()
Sea Level Pressure  
Sea Level Pressure 29.15 in    
Wind  
Wind Speed 22 mph (NW)    
Max Wind Speed 29 mph    
Max Gust Speed 38 mph    
Visibility 10 miles    
Events      
Averages and records for this station are not official NWS values.
T = Trace of Precipitation, MM = Missing Value Source: NWS Daily Summary

Daily Weather History Graph

Daily Weather History Graph

Search for Another Location

Airport or City:

Trip Planner

Search our weather history database for the weather conditions in past years. The results will help you decide how hot, cold, wet, or windy it might be!

Date:

Astronomy

Sep. 27, 2012 Rise Set
Actual Time 8:31 AM AKDT 8:17 PM AKDT
Civil Twilight 7:53 AM AKDT 8:55 PM AKDT
Nautical Twilight 7:08 AM AKDT 9:40 PM AKDT
Astronomical Twilight 6:21 AM AKDT 10:27 PM AKDT
Moon 7:07 PM AKDT (9/27) 5:53 AM AKDT (9/27)
Length of Visible Light 13h 02m
Length of Day
11h 46m
Waxing Gibbous, 94% of the Moon is Illuminated
Sep 27
Waxing Gibbous
Sep 29
Full
Oct 7
Last Quarter
Oct 15
New
Oct 21
First Quarter

Hourly Weather History & Observations

Time (AKDT) Temp. Windchill Dew Point Humidity Pressure Visibility Wind Dir Wind Speed Gust Speed Precip Events Conditions
12:16 AM 48.2 °F - 37.4 °F 66% 28.89 in 10.0 mi NNW 27.6 mph 36.8 mph N/A   Overcast
12:36 AM 48.2 °F - 37.4 °F 66% 28.90 in 10.0 mi NNW 25.3 mph 38.0 mph N/A   Overcast
12:56 AM 48.2 °F - 39.2 °F 71% 28.90 in 10.0 mi NW 18.4 mph - N/A   Overcast
1:16 AM 48.2 °F - 39.2 °F 71% 28.90 in 10.0 mi NW 19.6 mph - N/A   Overcast
1:36 AM 48.2 °F - 39.2 °F 71% 28.90 in 10.0 mi NW 18.4 mph - N/A   Overcast
1:56 AM 48.2 °F - 39.2 °F 71% 28.91 in 10.0 mi NNW 21.9 mph 27.6 mph N/A   Overcast
2:16 AM 48.2 °F - 39.2 °F 71% 28.91 in 10.0 mi NNW 20.7 mph - N/A   Overcast
2:36 AM 48.2 °F - 39.2 °F 71% 28.92 in 10.0 mi NNW 20.7 mph 25.3 mph N/A   Mostly Cloudy
2:56 AM 48.2 °F - 39.2 °F 71% 28.93 in 10.0 mi NW 20.7 mph 25.3 mph N/A   Mostly Cloudy
3:16 AM 48.2 °F - 39.2 °F 71% 28.93 in 10.0 mi NNW 19.6 mph 24.2 mph N/A   Mostly Cloudy
3:36 AM 46.4 °F 38.7 °F 39.2 °F 76% 28.94 in 10.0 mi NNW 20.7 mph 25.3 mph N/A   Partly Cloudy
3:56 AM 46.4 °F 39.2 °F 39.2 °F 76% 28.94 in 10.0 mi NNW 18.4 mph - N/A   Mostly Cloudy
4:16 AM 46.4 °F 39.0 °F 39.2 °F 76% 28.95 in 10.0 mi NW 19.6 mph - N/A   Scattered Clouds
4:36 AM 46.4 °F 39.2 °F 39.2 °F 76% 28.95 in 10.0 mi NW 18.4 mph - N/A   Clear
4:56 AM 46.4 °F 38.5 °F 39.2 °F 76% 28.96 in 10.0 mi NW 21.9 mph 26.5 mph N/A   Clear
5:16 AM 46.4 °F 38.5 °F 37.4 °F 71% 28.97 in 10.0 mi NW 21.9 mph 28.8 mph N/A   Clear
5:36 AM 44.6 °F 35.5 °F 39.2 °F 81% 28.98 in 10.0 mi NW 25.3 mph 29.9 mph N/A   Partly Cloudy
5:56 AM 44.6 °F 35.5 °F 37.4 °F 76% 28.98 in 10.0 mi NW 25.3 mph 32.2 mph N/A   Scattered Clouds
6:16 AM 44.6 °F 35.5 °F 37.4 °F 76% 28.99 in 10.0 mi NW 25.3 mph 28.8 mph N/A   Clear
6:36 AM 44.6 °F 35.1 °F 37.4 °F 76% 29.00 in 10.0 mi NW 27.6 mph - N/A   Scattered Clouds
6:56 AM 44.6 °F 35.5 °F 39.2 °F 81% 29.01 in 10.0 mi NW 25.3 mph 33.4 mph N/A   Mostly Cloudy
7:16 AM 44.6 °F 34.9 °F 37.4 °F 76% 29.02 in 10.0 mi NW 28.8 mph 35.7 mph N/A   Overcast
7:36 AM 44.6 °F 35.9 °F 37.4 °F 76% 29.03 in 10.0 mi NW 23.0 mph 32.2 mph N/A   Overcast
7:56 AM 44.6 °F 36.4 °F 37.4 °F 76% 29.04 in 10.0 mi NW 20.7 mph 33.4 mph N/A   Overcast
8:16 AM 44.6 °F 35.1 °F 37.4 °F 76% 29.05 in 10.0 mi NW 27.6 mph 32.2 mph N/A   Overcast
8:36 AM 44.6 °F 36.1 °F 37.4 °F 76% 29.06 in 10.0 mi NW 21.9 mph 31.1 mph N/A   Overcast
8:56 AM 42.8 °F 33.5 °F 37.4 °F 81% 29.08 in 10.0 mi NW 23.0 mph 28.8 mph N/A   Overcast
9:16 AM 42.8 °F 34.0 °F 35.6 °F 76% 29.09 in 10.0 mi NW 20.7 mph 27.6 mph N/A   Overcast
9:36 AM 42.8 °F 33.5 °F 35.6 °F 76% 29.10 in 10.0 mi NW 23.0 mph 27.6 mph N/A   Overcast
9:56 AM 42.8 °F 34.5 °F 37.4 °F 81% 29.11 in 10.0 mi WNW 18.4 mph 27.6 mph N/A   Overcast
10:16 AM 42.8 °F 34.3 °F 35.6 °F 76% 29.12 in 10.0 mi WNW 19.6 mph 28.8 mph N/A   Overcast
10:36 AM 42.8 °F 34.3 °F 35.6 °F 76% 29.13 in 10.0 mi NW 19.6 mph - N/A   Overcast
10:56 AM 42.8 °F 35.1 °F 35.6 °F 76% 29.14 in 10.0 mi NW 16.1 mph 24.2 mph N/A   Overcast
11:16 AM 42.8 °F 33.5 °F 35.6 °F 76% 29.14 in 10.0 mi NW 23.0 mph 27.6 mph N/A   Overcast
11:36 AM 42.8 °F 34.3 °F 35.6 °F 76% 29.15 in 10.0 mi NW 19.6 mph 27.6 mph N/A   Overcast
11:56 AM 42.8 °F 34.5 °F 35.6 °F 76% 29.17 in 10.0 mi WNW 18.4 mph 25.3 mph N/A   Overcast
12:16 PM 44.6 °F 36.9 °F 35.6 °F 71% 29.18 in 10.0 mi NW 18.4 mph 26.5 mph N/A   Overcast
12:36 PM 44.6 °F 36.9 °F 35.6 °F 71% 29.19 in 10.0 mi WNW 18.4 mph - N/A   Overcast
12:56 PM 44.6 °F 37.4 °F 35.6 °F 71% 29.20 in 10.0 mi NW 16.1 mph 23.0 mph N/A   Overcast
1:16 PM 44.6 °F 37.2 °F 35.6 °F 71% 29.21 in 10.0 mi WNW 17.3 mph 24.2 mph N/A   Overcast
1:36 PM 44.6 °F 36.4 °F 33.8 °F 66% 29.22 in 10.0 mi WNW 20.7 mph - N/A   Overcast
1:56 PM 42.8 °F 35.1 °F 33.8 °F 70% 29.23 in 10.0 mi WNW 16.1 mph 20.7 mph N/A   Overcast
2:16 PM 44.6 °F 37.8 °F 35.6 °F 71% 29.23 in 10.0 mi WNW 15.0 mph 21.9 mph N/A   Overcast
2:36 PM 42.8 °F 34.5 °F 35.6 °F 76% 29.24 in 10.0 mi WNW 18.4 mph 23.0 mph N/A   Overcast
2:56 PM 42.8 °F 34.3 °F 35.6 °F 76% 29.24 in 10.0 mi West 19.6 mph 24.2 mph N/A   Overcast
3:16 PM 42.8 °F 34.3 °F 35.6 °F 76% 29.25 in 10.0 mi WNW 19.6 mph 24.2 mph N/A   Overcast
3:36 PM 42.8 °F 34.0 °F 33.8 °F 70% 29.25 in 10.0 mi WNW 20.7 mph 26.5 mph N/A   Overcast
3:56 PM 42.8 °F 33.8 °F 33.8 °F 70% 29.26 in 10.0 mi WNW 21.9 mph - N/A   Overcast
4:16 PM 42.8 °F 34.0 °F 33.8 °F 70% 29.27 in 10.0 mi WNW 20.7 mph 26.5 mph N/A   Overcast
4:36 PM 42.8 °F 34.0 °F 33.8 °F 70% 29.28 in 10.0 mi NW 20.7 mph - N/A   Overcast
4:56 PM 42.8 °F 34.0 °F 33.8 °F 70% 29.28 in 10.0 mi WNW 20.7 mph 24.2 mph N/A   Overcast
5:16 PM 42.8 °F 34.5 °F 32.0 °F 66% 29.29 in 10.0 mi WNW 18.4 mph - N/A   Overcast
5:36 PM 42.8 °F 34.5 °F 32.0 °F 66% 29.29 in 10.0 mi NW 18.4 mph 24.2 mph N/A   Overcast
5:56 PM 42.8 °F 34.3 °F 32.0 °F 66% 29.30 in 10.0 mi WNW 19.6 mph - N/A   Overcast
6:16 PM 41.0 °F 31.4 °F 32.0 °F 70% 29.31 in 10.0 mi NW 21.9 mph 26.5 mph N/A   Overcast
6:36 PM 42.8 °F 33.8 °F 30.2 °F 61% 29.31 in 10.0 mi NW 21.9 mph 25.3 mph N/A   Overcast
6:56 PM 42.8 °F 34.5 °F 32.0 °F 66% 29.31 in 10.0 mi NW 18.4 mph 28.8 mph N/A   Overcast
7:16 PM 41.0 °F 30.7 °F 32.0 °F 70% 29.34 in 10.0 mi WNW 25.3 mph - N/A   Overcast
7:36 PM 39.2 °F 29.0 °F 33.8 °F 81% 29.34 in 10.0 mi WNW 21.9 mph 27.6 mph N/A   Overcast
7:56 PM 39.2 °F 28.3 °F 33.8 °F 81% 29.35 in 10.0 mi WNW 25.3 mph 31.1 mph N/A   Overcast
8:16 PM 39.2 °F 27.8 °F 30.2 °F 70% 29.36 in 8.0 mi WNW 27.6 mph 33.4 mph N/A   Overcast
8:36 PM 37.4 °F 26.9 °F 30.2 °F 75% 29.36 in 9.0 mi NW 20.7 mph 34.5 mph N/A   Overcast
8:56 PM 39.2 °F 29.0 °F 28.4 °F 65% 29.36 in 10.0 mi WNW 21.9 mph 28.8 mph N/A   Overcast
9:16 PM 39.2 °F 28.5 °F 30.2 °F 70% 29.36 in 10.0 mi WNW 24.2 mph 27.6 mph N/A   Overcast
9:36 PM 39.2 °F 29.3 °F 30.2 °F 70% 29.37 in 10.0 mi WNW 20.7 mph 28.8 mph N/A   Overcast
9:56 PM 39.2 °F 28.3 °F 28.4 °F 65% 29.38 in 10.0 mi WNW 25.3 mph 31.1 mph N/A   Overcast
10:16 PM 37.4 °F 27.5 °F 30.2 °F 75% 29.39 in 10.0 mi WNW 18.4 mph 24.2 mph N/A   Overcast
10:36 PM 39.2 °F 28.5 °F 28.4 °F 65% 29.40 in 10.0 mi NW 24.2 mph 27.6 mph N/A   Overcast
10:56 PM 39.2 °F 29.0 °F 28.4 °F 65% 29.40 in 10.0 mi WNW 21.9 mph 29.9 mph N/A   Overcast
11:16 PM 37.4 °F 26.4 °F 26.6 °F 65% 29.40 in 10.0 mi NW 23.0 mph 27.6 mph N/A   Overcast
11:36 PM 37.4 °F 27.8 °F 28.4 °F 70% 29.41 in 10.0 mi NW 17.3 mph 36.8 mph N/A   Overcast
11:56 PM 39.2 °F 27.8 °F 26.6 °F 61% 29.41 in 10.0 mi NW 27.6 mph 35.7 mph N/A   Mostly Cloudy